TimeEET,TemperatureF,Dew PointF,Humidity,Sea Level PressureIn,VisibilityMPH,Wind Direction,Wind SpeedMPH,Gust SpeedMPH,PrecipitationIn,Events,Conditions,WindDirDegrees,DateUTC
12:00 AM,57.2,41.0,55,30.06,-9999.0,NW,8.1,-,N/A,,Clear,310,2012-12-15 22:00:00
1:00 AM,55.4,41.0,58,30.06,-9999.0,NW,8.1,-,N/A,,Clear,320,2012-12-15 23:00:00
2:00 AM,54,42,53,30.07,6,NNW,5.8,,,,,330,2012-12-16 00:00:00
2:00 AM,53.6,41.0,62,30.06,-9999.0,NNW,5.8,-,N/A,,Clear,330,2012-12-16 00:00:00
3:00 AM,53.6,41.0,62,30.06,-9999.0,NW,4.6,-,N/A,,Clear,320,2012-12-16 01:00:00
4:00 AM,51.8,39.2,62,30.06,-9999.0,NW,4.6,-,N/A,,Clear,320,2012-12-16 02:00:00
8:00 AM,55,42,52,30.14,6,North,8.1,,,,,10,2012-12-16 06:00:00
8:00 AM,55.4,42.8,63,30.12,-9999.0,North,8.1,-,N/A,,Clear,10,2012-12-16 06:00:00
9:00 AM,59.0,42.8,55,30.12,-9999.0,North,12.7,-,N/A,,Clear,10,2012-12-16 07:00:00
10:00 AM,60.8,44.6,55,30.12,-9999.0,North,11.5,-,N/A,,Clear,350,2012-12-16 08:00:00
1:00 PM,69.8,46.4,43,30.06,-9999.0,North,8.1,-,N/A,,Clear,360,2012-12-16 11:00:00
2:00 PM,71,45,28,30.05,6,North,10.4,,,,Clear,350,2012-12-16 12:00:00
2:00 PM,71.6,44.6,38,30.06,-9999.0,North,10.4,-,N/A,,Clear,350,2012-12-16 12:00:00
3:00 PM,69.8,44.6,40,30.06,-9999.0,NNW,11.5,-,N/A,,Clear,340,2012-12-16 13:00:00
4:00 PM,69.8,44.6,40,30.06,-9999.0,NNW,10.4,-,N/A,,Clear,340,2012-12-16 14:00:00
6:00 PM,66.2,42.8,43,30.06,-9999.0,NNW,8.1,-,N/A,,Clear,340,2012-12-16 16:00:00
7:00 PM,64.4,42.8,45,30.09,-9999.0,NNW,8.1,-,N/A,,Clear,340,2012-12-16 17:00:00
8:00 PM,62,41,34,30.12,6,North,9.2,,,,,350,2012-12-16 18:00:00
8:00 PM,62.6,41.0,45,30.09,-9999.0,North,9.2,-,N/A,,Clear,350,2012-12-16 18:00:00
9:00 PM,60.8,41.0,48,30.09,-9999.0,North,11.5,-,N/A,,Clear,10,2012-12-16 19:00:00
10:00 PM,60.8,41.0,48,30.09,-9999.0,North,8.1,-,N/A,,Clear,360,2012-12-16 20:00:00
11:00 PM,59.0,41.0,51,30.06,-9999.0,North,5.8,-,N/A,,Clear,350,2012-12-16 21:00:00